{"data":{"norad_id":47393,"epoch":"2026-05-25T06:00:02.000160Z","epoch_age_seconds":60342,"freshness":"FRESH","line1":"1 47393U 21005AW  26145.25002315  .00345729  56049-4  10591-2 0  9996","line2":"2 47393  53.0330 321.5515 0006264 257.7259 257.2166 15.91373699  5859","mean_motion":15.91373699,"eccentricity":0.0006264,"inclination_deg":53.033,"raan_deg":321.5515,"arg_perigee_deg":257.7259,"mean_anomaly_deg":257.2166,"bstar":0.0010591,"rev_number":585,"period_min":90.487859696618,"perigee_km":294.25567044236,"apogee_km":302.6200834482,"semimajor_km":6676.5748769453,"source":"CELESTRAK","updated_at":"2026-05-25T13:38:16.553789Z"}}